Temp
-3 -4 -5 -6 -6 -7 -8 -9 -9 -8 -8 -8 -8 -8 -9 -9 -8 -8 -8 -8 -7 -7 -6 -7 -7 -6 -5 -4 -4 -3 -3 -2 -1 -1 -0 1 1 1
-5 -6 -6 -7 -8 -8 -9 -9 -10 -10 -9 -9 -9 -9 -9 -10 -9 -9 -9 -9 -8 -8 -8 -7 -7 -8 -7 -6 -5 -5 -4 -4 -3 -2 -1 -0 0 1
-6 -7 -8 -8 -9 -9 -9 -9 -10 -10 -11 -9 -9 -9 -10 -11 -10 -10 -10 -10 -10 -9 -9 -9 -8 -8 -8 -8 -6 -6 -6 -5 -4 -3 -3 -2 -1 -0
-8 -8 -9 -9 -9 -9 -10 -10 -10 -11 -12 -11 -9 -10 -11 -12 -12 -12 -12 -12 -12 -11 -11 -10 -9 -9 -8 -9 -8 -7 -6 -6 -6 -5 -4 -3 -2 -2
-9 -9 -9 -9 -9 -10 -10 -10 -11 -11 -12 -12 -11 -11 -12 -12 -13 -14 -14 -13 -13 -13 -12 -12 -11 -11 -9 -10 -9 -9 -8 -7 -7 -6 -6 -5 -4 -3
-9 -9 -9 -10 -10 -11 -11 -11 -12 -12 -12 -13 -12 -12 -13 -12 -15 -15 -15 -15 -14 -14 -14 -13 -13 -13 -12 -11 -10 -9 -10 -9 -8 -7 -7 -6 -5 -4
-9 -10 -10 -11 -11 -11 -12 -12 -13 -13 -13 -13 -13 -13 -13 -14 -15 -15 -15 -15 -14 -14 -14 -14 -14 -13 -13 -13 -12 -12 -11 -11 -9 -9 -8 -7 -6 -5
-10 -10 -10 -11 -11 -11 -12 -13 -13 -14 -14 -14 -15 -15 -14 -15 -16 -15 -15 -15 -15 -14 -15 -14 -14 -14 -14 -13 -13 -13 -12 -11 -11 -10 -8 -8 -7 -6
-10 -11 -11 -11 -11 -12 -12 -13 -13 -14 -15 -15 -15 -15 -16 -15 -15 -15 -15 -16 -15 -15 -15 -15 -14 -14 -14 -14 -14 -14 -13 -13 -12 -12 -11 -9 -8 -7
-11 -11 -11 -11 -12 -13 -13 -13 -13 -14 -15 -16 -17 -16 -16 -16 -16 -15 -16 -16 -16 -15 -16 -15 -15 -15 -14 -14 -14 -14 -14 -13 -13 -12 -12 -11 -10 -8
-11 -11 -11 -12 -13 -14 -14 -14 -14 -14 -16 -16 -17 -17 -16 -16 -16 -16 -16 -16 -16 -15 -15 -16 -15 -15 -15 -14 -14 -14 -14 -13 -13 -12 -12 -12 -11 -10
-11 -11 -12 -12 -13 -14 -16 -16 -15 -15 -16 -16 -16 -16 -17 -17 -16 -16 -16 -16 -16 -16 -15 -16 -16 -16 -15 -14 -15 -15 -14 -14 -13 -13 -13 -12 -12 -11
-11 -12 -12 -13 -13 -14 -14 -15 -15 -16 -16 -17 -17 -17 -16 -16 -16 -16 -16 -16 -16 -16 -16 -16 -16 -16 -16 -15 -15 -15 -15 -14 -14 -14 -13 -13 -12 -12
-12 -12 -12 -13 -13 -14 -14 -14 -15 -16 -16 -17 -17 -17 -17 -16 -17 -17 -16 -16 -16 -17 -16 -16 -16 -16 -16 -15 -15 -15 -15 -15 -14 -14 -13 -13 -12 -12
-13 -13 -13 -13 -13 -14 -14 -14 -15 -15 -16 -16 -17 -17 -17 -17 -17 -17 -17 -16 -16 -16 -16 -16 -16 -16 -16 -16 -15 -15 -15 -15 -14 -14 -14 -14 -13 -13
-13 -13 -14 -14 -14 -14 -14 -14 -15 -15 -16 -17 -17 -17 -17 -17 -17 -17 -17 -17 -17 -16 -16 -17 -16 -16 -16 -16 -16 -15 -15 -14 -14 -14 -14 -14 -13 -13
-13 -14 -14 -14 -14 -14 -14 -14 -15 -15 -16 -17 -17 -17 -17 -17 -17 -17 -17 -17 -17 -16 -16 -17 -17 -16 -16 -16 -16 -15 -15 -15 -14 -14 -13 -13 -13 -13
-14 -14 -14 -14 -14 -14 -15 -15 -15 -15 -16 -17 -18 -18 -18 -17 -17 -17 -17 -17 -17 -17 -17 -17 -17 -17 -17 -16 -16 -16 -15 -15 -15 -14 -14 -13 -13 -13
-15 -15 -15 -15 -15 -15 -15 -15 -16 -16 -16 -17 -17 -18 -18 -18 -18 -17 -17 -17 -17 -17 -17 -17 -17 -17 -17 -16 -16 -16 -16 -16 -15 -14 -14 -13 -13 -13
-15 -15 -15 -15 -15 -15 -16 -16 -16 -16 -16 -16 -16 -17 -18 -18 -18 -18 -18 -18 -18 -17 -17 -17 -17 -17 -17 -17 -17 -16 -16 -15 -16 -15 -14 -14 -13 -13
-15 -16 -16 -16 -16 -16 -16 -16 -17 -17 -17 -17 -16 -16 -17 -18 -18 -18 -18 -18 -18 -18 -18 -17 -17 -18 -18 -18 -17 -16 -16 -17 -16 -16 -15 -15 -14 -13
-16 -16 -16 -16 -16 -16 -16 -17 -17 -17 -16 -16 -16 -16 -17 -17 -18 -18 -18 -18 -18 -18 -18 -18 -17 -17 -18 -18 -18 -17 -17 -17 -17 -16 -16 -16 -15 -14
-16 -16 -16 -16 -16 -16 -17 -17 -17 -17 -16 -16 -16 -16 -16 -16 -17 -18 -18 -18 -18 -18 -18 -18 -18 -18 -18 -18 -18 -18 -17 -17 -17 -17 -16 -16 -16 -15
Height
3060 3055 3050 3045 3040 3035 3030 3025 3019 3008 3006 3008 3007 3009 3007 3003 3002 3001 3002 3001 2998 2994 2994 2995 2997 3001 3003 3005 3007 3008 3012 3016 3020 3024 3026 3029 3033 3038
3048 3043 3039 3035 3030 3026 3021 3017 3012 3006 2995 3000 2996 2995 2993 2990 2989 2988 2987 2988 2987 2984 2982 2979 2981 2983 2986 2989 2992 2994 2997 3001 3005 3009 3013 3017 3021 3023
3038 3032 3026 3023 3019 3015 3011 3007 3002 2998 2989 2987 2985 2984 2979 2976 2976 2974 2973 2971 2973 2973 2971 2969 2967 2968 2969 2971 2976 2980 2983 2986 2991 2995 2998 3002 3006 3009
3025 3021 3017 3012 3007 3003 2998 2993 2989 2986 2978 2972 2975 2972 2966 2965 2962 2960 2960 2958 2957 2959 2958 2956 2955 2956 2956 2957 2959 2963 2968 2971 2976 2981 2985 2988 2991 2995
3015 3010 3006 3000 2994 2990 2985 2980 2977 2972 2968 2962 2959 2959 2955 2953 2951 2949 2949 2947 2947 2946 2945 2945 2944 2943 2945 2945 2946 2948 2951 2957 2962 2965 2971 2975 2979 2983
3005 2999 2994 2988 2982 2978 2973 2968 2964 2958 2955 2950 2947 2945 2942 2942 2940 2938 2938 2938 2936 2935 2935 2935 2933 2932 2933 2934 2935 2936 2937 2940 2946 2951 2956 2961 2966 2971
2994 2988 2983 2977 2973 2968 2961 2956 2951 2945 2942 2938 2935 2932 2930 2929 2928 2928 2926 2926 2925 2926 2924 2924 2924 2924 2924 2923 2923 2925 2926 2927 2932 2936 2942 2948 2953 2959
2982 2977 2971 2967 2962 2957 2950 2944 2940 2935 2931 2928 2924 2921 2919 2918 2918 2917 2916 2915 2912 2918 2914 2914 2915 2913 2914 2914 2914 2914 2915 2916 2919 2923 2929 2934 2940 2946
2970 2966 2961 2955 2949 2943 2938 2933 2929 2926 2922 2918 2914 2911 2908 2909 2908 2906 2906 2904 2903 2905 2904 2903 2907 2905 2906 2905 2905 2905 2906 2907 2908 2912 2916 2922 2927 2933
2961 2956 2950 2944 2937 2931 2926 2920 2916 2914 2911 2909 2905 2902 2900 2899 2899 2897 2896 2894 2894 2895 2896 2893 2897 2896 2897 2897 2897 2898 2898 2898 2899 2902 2905 2910 2915 2921
2950 2945 2939 2932 2926 2920 2914 2909 2905 2903 2902 2899 2896 2893 2891 2890 2889 2888 2886 2885 2884 2885 2888 2887 2888 2888 2888 2889 2890 2890 2890 2890 2891 2892 2895 2898 2902 2907
2941 2934 2928 2922 2915 2911 2907 2902 2896 2894 2892 2889 2886 2884 2882 2880 2880 2879 2878 2877 2876 2875 2880 2879 2879 2881 2880 2881 2882 2883 2883 2883 2884 2884 2886 2889 2892 2895
2929 2923 2918 2912 2906 2901 2897 2892 2888 2885 2882 2879 2876 2874 2872 2871 2871 2871 2870 2870 2869 2868 2871 2871 2870 2872 2873 2873 2875 2876 2877 2877 2877 2878 2879 2881 2884 2886
2920 2915 2909 2903 2897 2892 2888 2883 2879 2875 2872 2869 2867 2865 2863 2862 2862 2861 2862 2861 2861 2861 2863 2863 2862 2864 2865 2866 2867 2870 2870 2871 2872 2872 2873 2874 2876 2879
2913 2907 2902 2896 2889 2883 2879 2874 2870 2865 2861 2858 2858 2856 2855 2854 2852 2852 2853 2853 2853 2854 2855 2856 2856 2857 2857 2859 2860 2862 2864 2865 2866 2867 2867 2868 2869 2871
2905 2900 2894 2887 2882 2876 2870 2867 2862 2858 2854 2852 2850 2849 2847 2845 2845 2845 2844 2845 2845 2846 2847 2848 2849 2849 2850 2852 2853 2854 2857 2858 2860 2861 2861 2863 2863 2865
2897 2892 2887 2882 2875 2870 2864 2859 2854 2851 2847 2845 2843 2841 2840 2838 2837 2837 2837 2837 2837 2838 2840 2840 2841 2841 2842 2844 2845 2847 2848 2851 2852 2853 2855 2857 2858 2859
2893 2886 2881 2875 2869 2863 2858 2853 2849 2844 2840 2837 2835 2834 2832 2832 2830 2830 2830 2830 2830 2831 2832 2833 2833 2834 2834 2836 2838 2839 2840 2841 2843 2844 2846 2848 2851 2853
2888 2883 2877 2870 2864 2859 2853 2848 2842 2838 2834 2830 2827 2826 2825 2824 2824 2823 2822 2822 2822 2823 2824 2825 2825 2826 2826 2827 2832 2831 2831 2832 2833 2836 2838 2840 2843 2846
2886 2880 2874 2868 2861 2855 2849 2843 2838 2833 2828 2824 2820 2817 2817 2817 2817 2816 2815 2815 2814 2815 2816 2817 2817 2818 2818 2820 2819 2822 2823 2824 2825 2826 2828 2831 2834 2836
2882 2877 2871 2865 2858 2852 2846 2840 2834 2829 2823 2818 2815 2811 2809 2809 2809 2809 2809 2809 2808 2808 2808 2809 2811 2811 2810 2810 2810 2813 2815 2815 2815 2816 2819 2821 2823 2827
2880 2874 2868 2862 2856 2850 2843 2836 2831 2825 2820 2815 2810 2806 2804 2802 2802 2803 2803 2803 2803 2802 2802 2802 2802 2803 2803 2803 2803 2804 2806 2807 2807 2807 2810 2812 2815 2816
2876 2870 2865 2859 2853 2847 2840 2834 2828 2822 2817 2811 2806 2802 2799 2796 2795 2795 2795 2796 2796 2796 2796 2796 2796 2796 2796 2796 2796 2796 2797 2797 2797 2798 2801 2803 2805 2808
Wind_Speed
54 54 53 51 49 47 45 43 44 52 52 47 46 41 40 40 39 39 36 35 39 47 49 50 47 49 51 53 54 54 49 50 50 50 51 45 42 41
54 53 50 46 44 41 41 43 44 47 54 48 47 47 46 46 44 43 42 39 37 41 42 46 45 44 48 53 55 55 54 50 49 50 50 53 54 45
51 49 47 43 42 42 43 45 46 46 51 52 51 50 50 49 48 47 46 45 41 38 39 41 44 42 38 44 52 57 55 53 50 50 50 51 53 61
48 46 44 44 45 45 46 47 48 48 49 52 50 50 51 49 48 48 46 43 41 40 37 39 41 42 41 35 44 53 57 55 51 50 50 51 52 50
46 45 45 46 47 46 47 48 48 48 47 48 49 47 47 47 46 43 40 40 37 36 34 34 36 38 39 36 32 44 54 56 54 50 49 50 50 49
46 45 45 46 45 46 49 50 49 48 46 45 44 44 44 43 43 44 41 36 34 32 32 28 29 32 34 35 33 33 44 52 53 50 48 48 49 50
45 45 45 44 45 48 50 48 45 45 44 43 42 41 41 38 41 42 43 39 37 34 34 31 30 30 29 30 30 31 36 38 49 49 48 47 47 47
46 45 43 44 48 49 47 43 41 41 42 41 41 41 39 36 38 41 42 39 38 33 34 33 29 29 27 27 28 28 31 39 45 48 49 48 47 46
45 43 44 49 51 49 45 42 40 37 36 37 39 39 39 34 36 42 41 37 35 34 33 33 29 30 27 28 27 26 28 35 39 40 44 47 48 46
43 45 48 50 49 46 44 41 38 36 34 34 34 35 35 35 35 39 37 34 34 33 29 32 27 29 26 28 28 25 26 30 33 39 43 45 47 48
45 46 47 46 44 42 39 39 38 37 33 32 34 35 37 36 32 32 34 32 35 34 29 30 29 28 27 27 26 24 25 26 29 33 36 41 46 47
46 44 42 43 42 38 32 37 39 36 33 32 32 32 33 34 31 29 29 29 30 33 27 29 27 25 28 24 21 21 21 23 26 25 28 36 37 39
43 41 40 41 39 37 36 37 37 34 35 35 36 34 32 31 31 30 28 28 28 31 27 27 25 25 27 27 21 20 20 19 22 25 25 27 31 30
39 38 38 37 36 35 33 33 34 35 36 36 35 34 31 29 28 29 28 27 27 28 28 26 26 28 28 26 25 20 19 20 21 21 21 21 23 26
36 35 35 34 33 31 29 31 31 34 34 33 33 30 28 29 27 26 27 25 26 25 28 27 29 27 28 28 26 22 20 19 20 20 18 17 18 22
35 34 35 35 33 31 31 30 30 30 27 25 30 27 27 26 27 25 26 24 25 25 26 27 26 29 27 26 27 28 23 20 19 20 21 17 16 17
36 34 33 32 32 31 30 29 29 28 26 25 27 26 24 24 25 24 24 23 25 26 23 24 25 26 27 27 26 28 30 29 27 25 23 20 19 18
31 32 32 31 30 30 29 29 27 25 25 27 28 26 22 23 23 23 24 25 27 27 25 24 24 25 26 26 27 28 25 28 28 29 29 26 23 23
27 29 30 30 30 29 27 27 27 24 24 24 27 29 25 24 25 25 24 25 28 26 25 25 26 27 27 28 26 28 29 29 30 29 29 30 28 27
24 26 28 28 28 28 26 27 27 25 24 24 24 24 28 26 23 22 24 26 26 27 27 27 27 26 28 27 29 29 30 32 31 31 31 31 31 30
25 25 27 28 29 29 28 27 26 26 26 25 23 21 22 27 25 23 21 19 19 21 23 22 17 17 22 26 30 27 26 28 31 32 31 32 34 34
24 25 26 27 28 29 30 30 27 26 26 25 23 22 19 23 28 27 23 21 20 19 20 21 17 19 22 25 23 23 25 26 30 33 32 31 32 34
24 25 26 27 28 29 30 31 30 28 26 25 24 22 20 19 21 25 25 24 24 23 22 20 23 25 25 23 25 25 24 24 25 28 29 28 28 27
Wind_Direction
313 312 311 312 310 309 309 307 305 305 303 304 304 304 303 300 298 294 288 283 279 279 276 272 268 256 251 247 246 246 243 241 240 240 244 233 224 226
312 311 311 312 308 307 305 302 300 298 298 301 301 301 299 297 295 293 292 287 280 278 279 279 275 268 256 250 245 245 247 244 240 239 239 237 236 232
312 311 311 311 308 305 302 299 296 295 294 296 296 296 294 294 295 294 293 292 286 280 278 275 275 275 270 253 247 244 245 246 243 240 239 241 243 239
312 311 310 308 306 305 302 301 299 297 293 293 294 294 293 293 294 294 293 291 289 285 280 277 275 272 273 268 250 243 242 245 245 243 241 239 241 241
310 309 309 308 307 307 306 304 301 296 294 292 293 292 290 290 290 290 292 289 287 286 283 279 276 275 270 271 262 247 241 241 243 244 243 241 241 242
309 309 308 306 305 306 306 304 300 296 294 293 293 292 288 288 284 284 286 282 284 283 279 283 278 274 272 269 265 253 246 240 238 239 240 242 242 241
309 308 306 304 304 305 304 302 299 297 295 294 292 290 289 287 282 280 280 281 278 281 283 280 277 272 274 272 269 261 250 245 240 237 236 236 240 240
308 306 303 304 305 305 304 299 295 292 291 293 292 290 289 283 281 280 277 280 277 276 279 276 279 278 278 276 274 270 257 248 240 239 233 232 233 236
308 307 304 306 307 306 303 299 294 292 291 292 290 289 287 280 281 278 279 275 277 279 278 276 273 277 277 271 272 272 263 254 246 239 242 234 233 233
308 308 307 307 307 307 306 301 297 297 297 295 291 287 281 279 273 275 281 278 276 277 280 279 273 277 274 268 267 268 263 261 259 247 242 242 238 234
310 309 308 308 310 309 306 301 299 296 298 295 291 287 282 277 276 279 272 271 272 274 278 280 276 278 276 268 267 268 267 261 257 252 246 243 240 237
310 311 311 311 308 304 297 295 298 301 301 299 297 294 287 279 274 276 274 271 277 282 285 279 275 274 274 268 266 271 271 262 257 253 249 244 240 238
314 315 314 314 310 305 300 293 292 296 294 293 294 295 291 283 274 274 274 268 272 276 284 278 267 263 263 269 265 265 264 258 256 250 252 250 250 245
316 315 316 316 312 307 304 299 294 289 284 280 286 292 292 289 282 275 270 269 263 270 273 271 267 262 261 257 266 262 254 253 255 254 254 254 253 241
316 319 320 321 318 315 305 307 303 303 298 283 285 287 288 285 285 278 271 269 264 266 270 269 268 269 273 256 258 260 256 249 249 253 257 255 249 252
319 321 325 327 327 322 314 310 305 305 293 290 287 290 290 283 278 283 272 269 267 267 269 266 266 263 268 259 257 259 258 260 253 250 251 252 254 255
321 322 323 322 322 322 320 314 309 307 293 272 290 293 294 286 281 274 272 268 267 269 270 265 263 263 259 257 258 260 261 262 265 258 250 251 254 258
325 328 327 326 327 325 324 322 318 310 304 285 277 280 283 287 286 279 269 268 270 271 272 268 264 259 259 258 258 262 262 263 261 259 258 254 250 252
334 335 335 334 332 330 326 326 326 321 311 305 288 276 273 278 283 278 275 268 268 270 269 269 267 266 265 261 256 263 266 265 264 260 256 253 252 251
337 339 340 339 339 337 332 331 332 330 321 314 308 289 268 271 280 282 278 277 274 272 270 269 267 267 267 268 264 261 262 262 261 259 258 255 251 249
343 343 343 343 344 344 341 337 334 334 329 323 317 306 280 264 267 274 279 283 282 277 273 273 270 265 264 266 263 262 261 261 264 264 260 257 253 249
336 338 340 342 345 345 345 345 339 336 332 327 321 313 297 273 265 267 271 277 281 277 274 264 275 252 266 276 273 273 265 258 257 257 258 258 257 253
339 340 340 340 342 344 346 346 345 340 335 331 327 319 307 296 277 266 262 262 270 275 274 270 264 267 270 269 272 275 275 270 260 253 251 250 252 251